Regional Weather Roundup
Issued by NWS Northern Indiana

Home | Current Version | Previous Version | Graphics & Text | Print | Product List | Glossary On
Versions: 1 2 3 4 5 6 7 8 9 10 11 12 13 14 15 16 17 18 19 20 21 22 23 24 25 26 27 28 29 30 31 32 33 34 35 36 37 38 39 40 41 42 43 44 45 46 47 48 49 50
000
ASUS43 KIWX 271510
RWRIWX

KIWX WEATHER ROUNDUP
NATIONAL WEATHER SERVICE NORTHERN INDIANA
1100 AM EDT THU APR 27 2017

NOTE: "FAIR" INDICATES FEW OR NO CLOUDS BELOW 12,000 FEET WITH NO
SIGNIFICANT WEATHER AND/OR OBSTRUCTIONS TO VISIBILITY.

* THESE STATIONS ARE NOT UNDER NWS QUALITY CONTROL. THEY ALSO MAY NOT
  REPORT WEATHER SUCH AS PRECIPITATION OR FOG.

INZ001>027-271600-
NORTHERN INDIANA

CITY           SKY/WX    TMP DP  RH WIND       PRES   REMARKS
GARY*          CLOUDY    50  41  71 SW25G39   29.55
VALPARAISO     CLOUDY    49  43  80 W26G32    29.56R
MICHIGAN CITY* CLOUDY    50  43  76 SW23G30   29.53R
LAPORTE*       CLOUDY    48  44  84 SW21G30   29.54R
KNOX*          CLOUDY    48  30  49 SW25G31   29.54R
SOUTH BEND     CLOUDY    51  44  77 W30G36    29.53R
ELKHART*       MOSUNNY   57  46  67 SW20G29   29.51R
GOSHEN         PTSUNNY   57  46  66 SW28G36   29.53R
MONTICELLO*    CLOUDY    48  44  84 SW17G25   29.60R
LOGANSPORT*    CLOUDY    50  45  81 W24G36    29.60R
ROCHESTER*     CLOUDY    52  45  76 W16G30    29.57R
WARSAW*        CLOUDY    54  43  66 SW15G32   29.55R
ANGOLA*        CLOUDY    64  55  72 S14       29.48S
FORT WAYNE     PTSUNNY   61  56  83 SW24      29.53R
HUNTINGTON*    CLOUDY    58  53  83 W23G30    29.55R
PERU/GRISSOM   CLOUDY    52  48  87 W21       29.58R
MARION*        CLOUDY    54  48  82 W23G33    29.60R

$$
INZ028>050-271600-
CENTRAL INDIANA

CITY           SKY/WX    TMP DP  RH WIND       PRES   REMARKS
LAFAYETTE      CLOUDY    48  44  86 W16G25    29.62R
KOKOMO*        CLOUDY    53  46  77 W21G28    29.60R
MUNCIE*        CLOUDY    61  56  83 W17G28    29.57R
INDIANAPOLIS   PTSUNNY   55  49  80 SW18      29.62R

$$
MIZ043>046-050>051-056>058-064>065-071>073-077>080-271600-
SOUTHWEST LOWER MICHIGAN

CITY           SKY/WX    TMP DP  RH WIND       PRES   REMARKS
BATTLE CREEK   CLOUDY    66  54  65 S29G39    29.44R
BENTON HARBOR  CLOUDY    51  44  77 SW23G32   29.50R
COLDWATER*     CLOUDY    64  54  69 SW13G25   29.47S
HILLSDALE*     LGT RAIN  63  52  67 SW20G29   29.49R
HOLLAND        PTSUNNY   51  45  79 SW26G46   29.48R
GRAND RAPIDS   PTSUNNY   64  54  69 SW22G36   29.40R
KALAMAZOO      PTSUNNY   64  49  57 S30G41    29.46R
STURGIS*       PTSUNNY   62  53  72 SW26G40   29.48R
THREE RIVERS*  PTSUNNY   63  50  63 SW23G37   29.48R

$$
OHZ001>008-015>018-024>025-271600-
NORTHWEST OHIO

CITY           SKY/WX    TMP DP  RH WIND       PRES   REMARKS
WAUSEON*       CLOUDY    64  55  72 SW22      29.52R HAZE
DEFIANCE       LGT RAIN  61  55  81 S16G25    29.53R
FINDLAY        CLOUDY    70  55  59 SW17      29.54R
TOLEDO EXPRESS LGT RAIN  67  53  61 SW12G22   29.52S
TOLEDO METCALF LGT RAIN  71  57  61 S13       29.52F
LIMA           RAIN      62  57  83 SW21G33   29.58R

$$
AND FOR LAKE MICHIGAN COASTAL AND OPEN LAKE BUOY OBSERVATIONS

STATION/POSITION TEMP    WIND        PRES    VSBY  WAVE
                 AIR SEA DIR/SP/G                  HT/PER
                 (F)     (DEG/KT/KT) (MB)    (MI)  (FT/S)
CALUMET HARBOR    47     240/ 14/ 23  999.2R
MICHIGAN CITY     48     230/ 25/ 27   N/A
BURNS HARBOR      48     240/ 21/ 26 1000.7R
SOUTH LAKE BUOY   47 42  240/ 23/ 29  993.4          3/ 4
4 MI NW BRIDGMAN  47 48  240/ 21/ 29 1000.3          6/ 5
MICHIGAN CITY     47 48                N/A           5/ 4

$$
&&




USA.gov is the U.S. government's official web portal to all federal, state and local government web resources and services.